Tiempo atmosférico en la estación meteorológica de Navasfrías, Salamanca (880 m.)



Fecha
DESCASC
Temp. máxima en grados centígrados (hora)
DESCASC
Temp. mínima en grados centígrados (hora)
DESCASC
Temp. media en grados centígrados
DESCASC
Racha de viento máxima en m/sg (hora)
DESCASC
Velocidad máxima media en intervalos de 10 minutos(hora)
DESCASC
Precipitaciones diarias en mm
DESCASC
Precipitaciones de 00:00 a 06:00 en mm
DESCASC
Precipitaciones de 06:00 a 12:00 en mm
DESCASC
Precipitaciones de 12:00 a 18:00 en mm
DESCASC
Precipitaciones de 18:00 a 24:00 en mm
DESCASC
22-01-2020 6.3 (14:40) -0.6 (03:10) 2.9 6.11 (14:10) 2.5 (14:20) 0 0 0 0 0
21-01-2020 4.3 (14:30) -1.4 (09:10) 1.5 11.94 (11:50) 4.17 (12:20) 0 0 0 0 0
20-01-2020 2.8 (15:00) -1.5 (09:00) 0.6 12.5 (15:30) 4.72 (13:30) 0 0 0 0 0
19-01-2020 7.7 (16:00) 0.3 (00:00) 4 15.56 (21:40) 6.11 (12:40) 0.2 0 0.2 0 0
18-01-2020 10.2 (14:30) 4.7 (00:00) 7.4 9.17 (05:50) 4.17 (06:00) 12.8 10.2 1.8 0 0.8
17-01-2020 10.8 (16:00) 4.3 (00:00) 7.6 8.33 (05:30) 4.17 (23:20) 0.6 0 0.6 0 0
16-01-2020 9 (16:00) 4.9 (00:00) 7 13.61 (17:30) 7.78 (20:00) 13.2 2.8 0 0 10.4
15-01-2020 9.2 (14:20) 6 (00:00) 7.6 15.28 (06:30) 7.78 (03:20) 29.2 4.6 14.8 6.8 3
14-01-2020 6.5 (21:40) 3.1 (00:00) 4.8 14.17 (22:10) 7.5 (22:10) 7.6 0 0 0.2 7.4
13-01-2020 8.3 (14:30) -4.9 (-00:0) 1.7 7.78 (17:20) 4.72 (14:40) 0 0 0 0 0
12-01-2020 11.4 (16:20) -6.7 (07:50) 2.3 -- (--) -- (--) 0 0 0 0 0
11-01-2020 11.8 (16:30) -6.2 (-00:0) 2.8 3.33 (15:00) 1.67 (15:00) 0 0 0 0 0
10-01-2020 8.4 (16:10) -2.7 (-00:0) 2.8 8.89 (14:50) 3.89 (14:50) 0 0 0 0 0
09-01-2020 14.3 (15:30) -3 (-00:0) 5.7 8.06 (14:50) 4.17 (19:30) 0 0 0 0 0
08-01-2020 14.3 (15:20) -6.1 (-00:0) 4.1 3.61 (16:10) 1.94 (16:10) 0 0 0 0 0
07-01-2020 14.3 (15:10) -4.8 (-00:0) 4.8 3.61 (16:30) 1.94 (16:30) 0 0 0 0 0
06-01-2020 14 (14:10) -5.7 (-00:0) 4.2 3.89 (16:00) 2.22 (14:20) 0 0 0 0 0
05-01-2020 5.8 (16:10) -4.8 (-00:0) 0.5 3.33 (15:00) 1.67 (15:20) 0 0 0 0 0
04-01-2020 7.3 (00:10) -3.2 (-00:0) 2.1 7.5 (15:20) 3.33 (00:10) 0 0 0 0 0
03-01-2020 8.8 (15:00) -1.8 (-00:0) 3.5 6.11 (13:30) 3.06 (13:40) 0 0 0 0 0
02-01-2020 12.4 (15:20) -3.8 (-00:0) 4.3 5.83 (12:10) 3.33 (12:20) 0 0 0 0 0
01-01-2020 16.5 (14:50) -4.5 (-00:0) 6 4.17 (15:00) 2.5 (15:00) 0 0 0 0 0
31-12-2019 17.1 (16:00) -3.8 (-00:0) 6.7 2.78 (17:00) 1.67 (17:00) 0 0 0 0 0
30-12-2019 -- (--) -- (--) -- -- (--) -- (--) -- 0 0 -- 0
29-12-2019 19.6 (15:20) -3.3 (-00:0) 8.2 3.06 (16:00) 1.39 (15:30) 0 0 0 0 0
28-12-2019 19.2 (15:20) -3 (-00:0) 8.1 4.72 (14:30) 2.22 (14:20) 0 0 0 0 0
27-12-2019 10.6 (14:50) -1.7 (-00:0) 4.5 3.61 (15:10) 2.22 (15:20) 0 0 0 0 0

Gráficas

Temp. máximas Temp. mínimas Temp. medias Precipitaciones Rachas de viento máximas Velocidades máximas media en intervalos de 10 minutos

Datos horarios

Fecha y hora oficial Temperatura (ºC) Velocidad del viento (km/h) Dirección del viento Racha (km/h) Dirección de racha Precipitación (mm) Presión (hPa) Tendencia (hPa) Humedad (%)
2020-01-25 23:00:00 -0.1 2 Sur 3 Sur 0 -- -- 100
2020-01-25 22:00:00 1.2 0 Calma 3 Sur 0 -- -- 100
2020-01-25 21:00:00 2.8 0 Calma 3 Sur 0 -- -- 100
2020-01-25 20:00:00 4.5 0 Calma 0 Calma 0 -- -- 99
2020-01-25 19:00:00 5.4 0 Calma 10 Noroeste 0.6 -- -- 99
2020-01-25 18:00:00 5.9 6 Noroeste 13 Noroeste 0.8 -- -- 97
2020-01-25 17:00:00 6.4 3 Noroeste 5 Norte 0 -- -- 96
2020-01-25 16:00:00 6.4 0 Calma 5 Norte 0 -- -- 97
2020-01-25 15:00:00 6 2 Norte 8 Noroeste 0 -- -- 98
2020-01-25 14:00:00 5.7 4 Norte 8 Norte 0.2 -- -- 100
2020-01-25 13:00:00 5.4 2 Norte 6 Norte 0.2 -- -- 100
2020-01-25 12:00:00 5 3 Norte 8 Norte 0 -- -- 100
2020-01-25 11:00:00 4.4 0 Calma 5 Noroeste 0.2 -- -- 100
2020-01-25 10:00:00 4.1 0 Calma 2 Norte 0.2 -- -- 100
2020-01-25 09:00:00 3.9 0 Calma 2 Sudoeste 0 -- -- 100
2020-01-25 08:00:00 3.9 0 Calma 2 Sudoeste 0.6 -- -- 100
2020-01-25 07:00:00 4 0 Calma 4 Sur 1.4 -- -- 100
2020-01-25 06:00:00 4.2 0 Calma 11 Sudeste 1.6 -- -- 99
2020-01-25 05:00:00 4.3 3 Sudeste 6 Sudeste 0.6 -- -- 100
2020-01-25 04:00:00 4.1 0 Calma 3 Este 0.2 -- -- 100
2020-01-25 03:00:00 4 0 Calma -- -- 0 -- -- 100
2020-01-25 02:00:00 3.8 0 Calma 2 Sur 0 -- -- 100
2020-01-25 01:00:00 3.6 0 Calma 2 Sudeste 0 -- -- 100
2020-01-25 00:00:00 3.5 0 Calma 2 Sur 0 -- -- 100
2020-01-24 23:00:00 3.3 0 Calma 2 Sur 0 -- -- 100
2020-01-24 22:00:00 3.7 0 Calma 2 Sudeste 0 -- -- 98
2020-01-24 21:00:00 4.7 0 Calma 3 Norte 0 -- -- 98
2020-01-24 20:00:00 5.5 0 Calma 10 Este 0 -- -- 96
2020-01-24 19:00:00 5.8 3 Sudeste 10 Sur 0 -- -- 95
2020-01-24 18:00:00 6 4 Este 17 Sur 0 -- -- 94
2020-01-24 17:00:00 6.3 9 Sudeste 20 Sudeste 0 -- -- 91
2020-01-24 16:00:00 6.4 6 Este 18 Este 0 -- -- 95
2020-01-24 15:00:00 5.7 6 Sudeste 21 Sudeste 0 -- -- 99
2020-01-24 14:00:00 5.5 12 Sudeste 22 Sur 0.4 -- -- 99
2020-01-24 13:00:00 5 6 Sudeste 14 Sudeste 0.2 -- -- 98
2020-01-24 12:00:00 4.8 3 Este 13 Sudeste 0 -- -- 100
2020-01-24 11:00:00 4.3 8 Sudeste 15 Este 0 -- -- 100
2020-01-24 10:00:00 4.1 6 Sudeste 18 Sudeste 0 -- -- 100
2020-01-24 09:00:00 4.2 5 Sudeste 18 Sudeste 0.4 -- -- 100
2020-01-24 08:00:00 4.3 7 Sudeste 18 Sudeste 0 -- -- 100
2020-01-24 07:00:00 4.5 9 Sudeste 23 Sudeste 0 -- -- 100
2020-01-24 06:00:00 4.7 9 Sudeste 22 Sudeste 0.4 -- -- 100
2020-01-24 05:00:00 4.8 8 Sudeste 18 Sudeste 0.4 -- -- 100
2020-01-24 04:00:00 4.9 5 Sudeste 17 Sudeste 1.2 -- -- 100
2020-01-24 03:00:00 5 3 Sudeste 19 Sudeste 0.8 -- -- 100
2020-01-24 02:00:00 5.1 8 Sudeste 19 Este 0.6 -- -- 100
2020-01-24 01:00:00 5.1 6 Sur 20 Sudeste 0.2 -- -- 100
2020-01-24 00:00:00 5 6 Sudeste 23 Sudeste 0.2 -- -- 100
2020-01-23 23:00:00 4.9 12 Sudeste 35 Sudeste 0 -- -- 100
2020-01-23 22:00:00 4.9 15 Sudeste 43 Sudeste 0.2 -- -- 100
2020-01-23 21:00:00 5 11 Sudeste 27 Sudeste 0.6 -- -- 99
2020-01-23 20:00:00 4.9 10 Sur 41 Sudeste 0.6 -- -- 99
2020-01-23 19:00:00 4.9 12 Sudeste 35 Sudeste 0.6 -- -- 98
2020-01-23 18:00:00 5 14 Sudeste 35 Sudeste 1.2 -- -- 98
2020-01-23 17:00:00 4.8 13 Sudeste 26 Sudeste 1 -- -- 98
2020-01-23 16:00:00 4.8 10 Sudeste 26 Sudeste 1 -- -- 98
2020-01-23 15:00:00 4.5 9 Sudeste 19 Sudeste 1 -- -- 98
2020-01-23 14:00:00 4 9 Sudeste 22 Sudeste 0.4 -- -- 100
2020-01-23 13:00:00 4.2 12 Sudeste 32 Sudeste 0.8 -- -- 98
2020-01-23 12:00:00 4 12 Sudeste 31 Sudeste 0 -- -- 100
2020-01-23 11:00:00 4.2 10 Sudeste 29 Sudeste 1 -- -- 97
2020-01-23 10:00:00 3.8 5 Sudeste 30 Sudeste 2.2 -- -- 98
2020-01-23 09:00:00 3.7 11 Este 30 Sudeste 2.2 -- -- 97
2020-01-23 08:00:00 3.6 8 Este 27 Este 2.4 -- -- 96
2020-01-23 07:00:00 4.2 6 Este 19 Sudeste 1.6 -- -- 97
2020-01-23 06:00:00 4.4 9 Sudeste 25 Sudeste 1.2 -- -- 96
2020-01-23 05:00:00 4.5 6 Sudeste 21 Este 0.8 -- -- 97
2020-01-23 04:00:00 4.6 5 Sudeste 22 Sur 0.4 -- -- 96
2020-01-23 03:00:00 4.6 0 Calma 17 Sudeste 1.2 -- -- 93
2020-01-23 02:00:00 4.6 2 Sudeste 6 Sudeste 0 -- -- 92
2020-01-23 01:00:00 2.7 0 Calma 2 Sudoeste 0 -- -- 98
2020-01-23 00:00:00 2.6 0 Calma 4 Sur 0 -- -- 97
2020-01-22 23:00:00 2.4 0 Calma 3 Sur 0 -- -- 96
2020-01-22 22:00:00 2.1 0 Calma 2 Sudoeste 0 -- -- 96
2020-01-22 21:00:00 2.1 0 Calma 3 Sudoeste 0 -- -- 95
2020-01-22 20:00:00 3 2 Sudoeste 4 Sur 0 -- -- 91
2020-01-22 19:00:00 4.1 2 Sur 4 Sur 0 -- -- 91
2020-01-22 18:00:00 5.9 0 Calma 7 Sudeste 0 -- -- 83
2020-01-22 17:00:00 6.3 0 Calma 6 Sudeste 0 -- -- 83
2020-01-22 16:00:00 6.1 4 Sudeste 20 Este 0 -- -- 82
2020-01-22 15:00:00 6.3 6 Este 22 Este 0 -- -- 81
2020-01-22 14:00:00 5.7 4 Este 15 Este 0 -- -- 84
2020-01-22 13:00:00 4.5 2 Nordeste 6 Noroeste 0 -- -- 92
2020-01-22 12:00:00 3.5 0 Calma 6 Norte 0 -- -- 94
2020-01-22 11:00:00 2.9 3 Norte 7 Norte 0 -- -- 95
2020-01-22 10:00:00 2.3 2 Norte 4 Norte 0 -- -- 98
2020-01-22 09:00:00 1.6 2 Nordeste 7 Norte 0 -- -- 99
2020-01-22 08:00:00 1.6 0 Calma 6 Norte 0 -- -- 98
2020-01-22 07:00:00 1.6 0 Calma 3 Sur 0 -- -- 99
2020-01-22 06:00:00 1 0 Calma 3 Sur 0 -- -- 100
2020-01-22 05:00:00 0.3 0 Calma 5 Sur 0 -- -- 99
2020-01-22 04:00:00 -0.2 0 Calma 6 Sur 0 -- -- 98
2020-01-22 03:00:00 -0.4 2 Sur 4 Sur 0 -- -- 95
2020-01-22 02:00:00 1.1 0 Calma 7 Norte 0 -- -- 93
2020-01-22 01:00:00 2.2 2 Norte 9 Norte 0 -- -- 92
2020-01-22 00:00:00 2.3 0 Calma 17 Nordeste 0 -- -- 91
2020-01-21 23:00:00 2.3 3 Nordeste 24 Norte 0 -- -- 89
2020-01-21 22:00:00 2.9 6 Norte 24 Nordeste 0 -- -- 89
2020-01-21 21:00:00 3 4 Nordeste 18 Nordeste 0 -- -- 87
2020-01-21 20:00:00 3.3 4 Nordeste 24 Nordeste 0 -- -- 84
2020-01-21 19:00:00 3.6 6 Norte 26 Norte 0 -- -- 83
2020-01-21 18:00:00 3.7 7 Norte 42 Norte 0 -- -- 81
2020-01-21 17:00:00 3.9 6 Norte 28 Nordeste 0 -- -- 80
2020-01-21 16:00:00 3.9 7 Norte 32 Nordeste 0 -- -- 80
2020-01-21 15:00:00 3.8 8 Norte 31 Nordeste 0 -- -- 79
2020-01-21 14:00:00 4.2 7 Nordeste 31 Noroeste 0 -- -- 73
2020-01-21 13:00:00 2.4 8 Norte 40 Norte 0 -- -- 78
2020-01-21 12:00:00 0.9 14 Norte 43 Nordeste 0 -- -- 82
2020-01-21 11:00:00 0.8 12 Norte 30 Nordeste 0 -- -- 83
2020-01-21 10:00:00 -0.6 8 Norte 31 Norte 0 -- -- 87
2020-01-21 09:00:00 -1.3 5 Norte 18 Norte 0 -- -- 90
2020-01-21 08:00:00 -0.9 7 Noroeste 23 Norte 0 -- -- 89
2020-01-21 07:00:00 -1.1 4 Norte 27 Nordeste 0 -- -- 89
2020-01-21 06:00:00 -1.2 9 Norte 31 Nordeste 0 -- -- 89
2020-01-21 05:00:00 -1.3 4 Norte 19 Norte 0 -- -- 87
2020-01-21 04:00:00 -0.8 7 Norte 26 Nordeste 0 -- -- 88
2020-01-21 03:00:00 -0.4 6 Norte 20 Noroeste 0 -- -- 90
2020-01-21 02:00:00 -0.4 6 Norte 14 Noroeste 0 -- -- 88
2020-01-21 01:00:00 -0.2 8 Noroeste 20 Noroeste 0 -- -- 85
2020-01-21 00:00:00 -0.5 8 Noroeste 24 Noroeste 0 -- -- 78
2020-01-20 23:00:00 0.3 8 Noroeste 18 Norte 0 -- -- 73
2020-01-20 22:00:00 0.7 6 Noroeste 20 Nordeste 0 -- -- 70
2020-01-20 21:00:00 0.7 5 Noroeste 18 Norte 0 -- -- 68
2020-01-20 20:00:00 0.7 6 Norte 25 Norte 0 -- -- 66
2020-01-20 19:00:00 1.1 5 Nordeste 31 Norte 0 -- -- 62
2020-01-20 18:00:00 2 7 Norte 33 Norte 0 -- -- 59
2020-01-20 17:00:00 2.6 10 Norte 39 Norte 0 -- -- 56
2020-01-20 16:00:00 2.3 6 Norte 45 Norte 0 -- -- 57
2020-01-20 15:00:00 2.8 10 Norte 35 Norte 0 -- -- 57
2020-01-20 14:00:00 2.5 13 Norte 40 Nordeste 0 -- -- 57
2020-01-20 13:00:00 1.9 14 Norte 41 Norte 0 -- -- 57
2020-01-20 12:00:00 1.1 10 Norte 40 Norte 0 -- -- 61
2020-01-20 11:00:00 0.2 15 Norte 43 Norte 0 -- -- 64
2020-01-20 10:00:00 -0.9 13 Norte 32 Norte 0 -- -- 68
2020-01-20 09:00:00 -1.5 8 Norte 37 Nordeste 0 -- -- 71
2020-01-20 08:00:00 -1.4 13 Norte 33 Norte 0 -- -- 72
2020-01-20 07:00:00 -1.1 6 Nordeste 31 Norte 0 -- -- 69
2020-01-20 06:00:00 -1 9 Norte 35 Noroeste 0 -- -- 67
2020-01-20 05:00:00 -0.8 9 Norte 33 Noroeste 0 -- -- 67
2020-01-20 04:00:00 -0.6 10 Norte 44 Norte 0 -- -- 68
2020-01-20 03:00:00 -0.4 12 Norte 40 Norte 0 -- -- 70
2020-01-20 02:00:00 -0.1 16 Norte 39 Norte 0 -- -- 69
2020-01-20 01:00:00 0.2 10 Norte 37 Noroeste 0 -- -- 67
2020-01-20 00:00:00 0.3 14 Norte 41 Norte 0 -- -- 67
2020-01-19 23:00:00 0.5 10 Nordeste 45 Noroeste 0 -- -- 65
2020-01-19 22:00:00 1 16 Norte 56 Norte 0 -- -- 59
2020-01-19 21:00:00 1.5 14 Norte 50 Norte 0 -- -- 57
2020-01-19 20:00:00 2.6 13 Norte 40 Nordeste 0 -- -- 50
2020-01-19 19:00:00 3.6 9 Nordeste 40 Norte 0 -- -- 55
2020-01-19 18:00:00 5.5 14 Norte 48 Nordeste 0 -- -- 50
2020-01-19 17:00:00 7.1 17 Norte 50 Norte 0 -- -- 44
2020-01-19 16:00:00 7.7 16 Norte 49 Norte 0 -- -- 43
2020-01-19 15:00:00 7.5 13 Norte 47 Nordeste 0 -- -- 54
2020-01-19 14:00:00 6.9 19 Norte 52 Norte 0 -- -- 68
2020-01-19 13:00:00 6.3 21 Norte 48 Norte 0 -- -- 76
2020-01-19 12:00:00 5.6 13 Norte 40 Noroeste 0.2 -- -- 86
2020-01-19 11:00:00 4.2 14 Norte 30 Norte 0 -- -- 96
2020-01-19 10:00:00 3.5 9 Norte 24 Norte 0 -- -- 98
2020-01-19 09:00:00 3.3 9 Norte 23 Norte 0 -- -- 99
2020-01-19 08:00:00 3.5 10 Norte 25 Norte 0 -- -- 98
2020-01-19 07:00:00 4 14 Norte 26 Norte 0 -- -- 98
2020-01-19 06:00:00 4.6 16 Norte 34 Noroeste 0 -- -- 96
2020-01-19 05:00:00 4.9 12 Norte 31 Noroeste 0 -- -- 96
2020-01-19 04:00:00 5.6 12 Norte 23 Noroeste 0 -- -- 96
2020-01-19 03:00:00 5.7 15 Noroeste 28 Noroeste 0 -- -- 95
2020-01-19 02:00:00 5.3 7 Noroeste 19 Oeste 0 -- -- 95
2020-01-19 01:00:00 5.3 10 Noroeste 23 Norte 0 -- -- 93
2020-01-19 00:00:00 5 8 Noroeste 23 Noroeste 0 -- -- 92
2020-01-18 23:00:00 4.9 4 Norte 15 Oeste 0 -- -- 90
2020-01-18 22:00:00 5.1 5 Oeste 23 Noroeste 0.4 -- -- 91
2020-01-18 21:00:00 6.3 6 Noroeste 23 Norte 0.4 -- -- 95
2020-01-18 20:00:00 6.8 3 Oeste 19 Sudoeste 0 -- -- 93
2020-01-18 19:00:00 8 5 Sudoeste 22 Oeste 0 -- -- 93
2020-01-18 18:00:00 8.3 7 Sudoeste 28 Oeste 0 -- -- 95
2020-01-18 17:00:00 8.5 11 Sudoeste 23 Sudoeste 0 -- -- 98
2020-01-18 16:00:00 8.6 8 Sudoeste 21 Sur 0 -- -- 99
2020-01-18 15:00:00 9.8 12 Sur 22 Sur 0 -- -- 94
2020-01-18 14:00:00 9 11 Sur 20 Sur 0 -- -- 97
2020-01-18 13:00:00 8.2 7 Sudoeste 21 Sur 0 -- -- 98
2020-01-18 12:00:00 8.5 9 Sur 18 Sur 0 -- -- 98
2020-01-18 11:00:00 8.5 7 Sur 29 Sur 0.2 -- -- 95
2020-01-18 10:00:00 7.9 4 Sudeste 24 Sur 0 -- -- 96
2020-01-18 09:00:00 7.5 7 Sur 27 Sudeste 0.2 -- -- 96
2020-01-18 08:00:00 6.8 9 Sur 27 Sur 0.4 -- -- 97
2020-01-18 07:00:00 6.8 13 Sur 28 Sur 1 -- -- 97
2020-01-18 06:00:00 7 15 Sur 33 Sudoeste 3.6 -- -- 96
2020-01-18 05:00:00 7 10 Sur 21 Sudeste 3 -- -- 97
2020-01-18 04:00:00 6.7 10 Sur 26 Sur 2.4 -- -- 96
2020-01-18 03:00:00 6.7 9 Sur 20 Sudoeste 1.2 -- -- 95
2020-01-18 02:00:00 6.5 8 Sur 16 Sudoeste 0 -- -- 91
2020-01-18 01:00:00 6.4 3 Sudeste 15 Sur 0 -- -- 89
2020-01-18 00:00:00 6.4 6 Sur 24 Sudoeste 0 -- -- 89
2020-01-17 23:00:00 5.5 9 Sudoeste 14 Sudoeste 0 -- -- 93
2020-01-17 22:00:00 4.6 0 Calma 6 Sudoeste 0 -- -- 95
2020-01-17 21:00:00 5 0 Calma 5 Sur 0 -- -- 95
2020-01-17 20:00:00 5.7 0 Calma 4 Este 0 -- -- 92
2020-01-17 19:00:00 6.4 0 Calma 5 Sur 0 -- -- 89
2020-01-17 18:00:00 7.9 2 Sudoeste 10 Sur 0 -- -- 80
2020-01-17 17:00:00 10.7 3 Sur 10 Sudoeste 0 -- -- 63
2020-01-17 16:00:00 10.8 4 Sur 11 Noroeste 0 -- -- 61
2020-01-17 15:00:00 10 4 Norte 13 Norte 0 -- -- 58
2020-01-17 14:00:00 9.3 6 Noroeste 17 Noroeste 0 -- -- 64
2020-01-17 13:00:00 8.9 7 Oeste 17 Noroeste 0 -- -- 68
2020-01-17 12:00:00 7.2 8 Noroeste 17 Noroeste 0 -- -- 80
2020-01-17 11:00:00 6.9 0 Calma 7 Norte 0 -- -- 95
2020-01-17 10:00:00 6.2 0 Calma 5 Oeste 0 -- -- 100
2020-01-17 09:00:00 6.5 2 Sudoeste 10 Sur 0.4 -- -- 100
2020-01-17 08:00:00 6.5 4 Sudoeste 15 Sur 0 -- -- 100
2020-01-17 07:00:00 6.3 8 Sudoeste 21 Sudoeste 0.2 -- -- 100
2020-01-17 06:00:00 6.2 13 Sur 30 Sudoeste 0 -- -- 100
2020-01-17 05:00:00 6.2 13 Sudoeste 24 Sudoeste 0 -- -- 100
2020-01-17 04:00:00 6.3 12 Sudoeste 24 Sudoeste 0 -- -- 100
2020-01-17 03:00:00 6.3 11 Sudoeste 23 Sudoeste 0 -- -- 99
2020-01-17 02:00:00 6.1 11 Sudoeste 20 Sudoeste 0 -- -- 99
2020-01-17 01:00:00 4.6 0 Calma 8 Sudeste 0 -- -- 100
2020-01-17 00:00:00 4.9 2 Sur 10 Sudoeste 0 -- -- 98
2020-01-16 23:00:00 6.6 3 Sudoeste 20 Sur 0 -- -- 99
2020-01-16 22:00:00 6.8 14 Sudoeste 30 Sudoeste 0.6 -- -- 98
2020-01-16 21:00:00 7.7 22 Sur 45 Sudoeste 5 -- -- 96
2020-01-16 20:00:00 8.1 28 Sur 47 Sudoeste 3 -- -- 92
2020-01-16 19:00:00 8 20 Sur 48 Sur 1.8 -- -- 92
2020-01-16 18:00:00 8.4 22 Sur 49 Sur 0 -- -- 87
2020-01-16 17:00:00 8.6 24 Sur 42 Sudeste 0 -- -- 86
2020-01-16 16:00:00 9 19 Sur 45 Sur 0 -- -- 86
2020-01-16 15:00:00 8.5 19 Sur 39 Sur 0 -- -- 89
2020-01-16 14:00:00 8.4 19 Sur 41 Sur 0 -- -- 86
2020-01-16 13:00:00 8.2 25 Sur 45 Sur 0 -- -- 89
2020-01-16 12:00:00 8 24 Sur 42 Sudoeste 0 -- -- 94
2020-01-16 11:00:00 7.6 17 Sur 35 Sur 0 -- -- 96
2020-01-16 10:00:00 7.5 20 Sur 37 Sur 0 -- -- 100
2020-01-16 09:00:00 7.5 17 Sur 39 Sur 0 -- -- 100
2020-01-16 08:00:00 7.8 15 Sur 43 Sur 0 -- -- 100
2020-01-16 07:00:00 8.2 19 Sur 35 Sur 0 -- -- 100
2020-01-16 06:00:00 8.4 17 Sur 32 Sur 0 -- -- 100
2020-01-16 05:00:00 8.5 15 Sur 31 Sudeste 0.4 -- -- 100
2020-01-16 04:00:00 8.5 15 Sur 28 Sur 1.4 -- -- 100
2020-01-16 03:00:00 8.4 14 Sur 31 Sur 0.8 -- -- 100
2020-01-16 02:00:00 8.3 15 Sur 31 Sur 0.2 -- -- 100
2020-01-16 01:00:00 8.4 14 Sur 32 Sur 0 -- -- 100
2020-01-16 00:00:00 8.6 15 Sur 31 Sur 0 -- -- 100
2020-01-15 23:00:00 8.7 15 Sur 37 Sur 0 -- -- 100
2020-01-15 22:00:00 8.9 15 Sur 32 Sur 0.6 -- -- 100
2020-01-15 21:00:00 8.8 15 Sur 29 Sur 1.4 -- -- 100
2020-01-15 20:00:00 9 14 Sur 27 Sudeste 0.2 -- -- 100
2020-01-15 19:00:00 9 12 Sur 27 Sudeste 0.8 -- -- 100
2020-01-15 18:00:00 9 10 Sur 28 Sur 0.6 -- -- 99
2020-01-15 17:00:00 8.9 18 Sur 33 Sur 1.2 -- -- 98
2020-01-15 16:00:00 9.1 12 Sur 31 Sur 1 -- -- 98
2020-01-15 15:00:00 9.1 17 Sur 32 Sur 1.8 -- -- 99
2020-01-15 14:00:00 9.1 14 Sur 34 Sur 0.6 -- -- 100
2020-01-15 13:00:00 8.6 14 Sur 26 Sur 1.6 -- -- 98
2020-01-15 12:00:00 8 16 Sur 28 Sur 2.2 -- -- 99
2020-01-15 11:00:00 7.3 13 Sudoeste 38 Sur 5.2 -- -- 100
2020-01-15 10:00:00 7 21 Sur 42 Sur 3.4 -- -- 100
2020-01-15 09:00:00 7 24 Sur 47 Sur 1.6 -- -- 100
2020-01-15 08:00:00 6.1 19 Sur 43 Sudoeste 1.8 -- -- 100
2020-01-15 07:00:00 6.1 22 Sur 55 Sudoeste 0.6 -- -- 100
2020-01-15 06:00:00 6.2 24 Sur 51 Sudoeste 2.8 -- -- 100
2020-01-15 05:00:00 6.1 25 Sur 47 Sur 1.6 -- -- 100
2020-01-15 04:00:00 6.1 21 Sur 54 Sur 0.2 -- -- 100
2020-01-15 03:00:00 6.3 21 Sur 44 Sur 0 -- -- 100
2020-01-15 02:00:00 6.3 22 Sur 44 Sur 0 -- -- 100
2020-01-15 01:00:00 6.4 17 Sur 39 Sudoeste 0 -- -- 100
2020-01-15 00:00:00 6.4 24 Sur 39 Sur 0 -- -- 100
2020-01-14 23:00:00 6.4 21 Sur 51 Sur 0 -- -- 100
2020-01-14 22:00:00 6.5 24 Sur 42 Sudoeste 2.4 -- -- 100
2020-01-14 21:00:00 6.3 18 Sur 40 Sur 2.8 -- -- 100
2020-01-14 20:00:00 5.4 13 Sur 33 Sur 1.2 -- -- 100
2020-01-14 19:00:00 4.9 10 Sur 26 Sur 1 -- -- 99
2020-01-14 18:00:00 4.7 10 Sur 29 Sur 0 -- -- 97
2020-01-14 17:00:00 5.1 10 Sur 30 Sur 0 -- -- 95
2020-01-14 16:00:00 4.8 14 Sur 32 Sur 0 -- -- 94
2020-01-14 15:00:00 5 12 Sur 26 Sudeste 0 -- -- 94
2020-01-14 14:00:00 4.4 8 Sur 28 Sur 0.2 -- -- 96
2020-01-14 13:00:00 4 5 Sur 14 Sur 0 -- -- 96
2020-01-14 12:00:00 4.2 8 Sur 20 Sur 0 -- -- 91
2020-01-14 11:00:00 4.4 7 Sur 23 Sudoeste 0 -- -- 90
2020-01-14 10:00:00 4 10 Sur 21 Sur 0 -- -- 91
2020-01-14 09:00:00 3.7 8 Sudoeste 22 Sur 0 -- -- 90
2020-01-14 08:00:00 3.9 9 Sur 20 Sur 0 -- -- 88
2020-01-14 07:00:00 3.8 12 Sur 21 Sur 0 -- -- 88
2020-01-14 06:00:00 3.8 7 Sur 17 Sudoeste 0 -- -- 88
2020-01-14 05:00:00 3.7 0 Calma 12 Sudoeste 0 -- -- 88
2020-01-14 04:00:00 4 6 Sur 17 Sur 0 -- -- 87
2020-01-14 03:00:00 3.5 4 Sudoeste 20 Sudoeste 0 -- -- 87
2020-01-14 02:00:00 3.3 9 Sur 22 Sudoeste 0 -- -- 87
2020-01-14 01:00:00 3.7 13 Sur 24 Sudoeste 0 -- -- 85
2020-01-14 00:00:00 3.9 8 Sur 24 Sudoeste 0 -- -- 85
2020-01-13 23:00:00 3.9 5 Sudoeste 18 Sur 0 -- -- 86
2020-01-13 22:00:00 2.9 8 Sur 15 Sur 0 -- -- 90
2020-01-13 21:00:00 3.6 2 Sudoeste 23 Sur 0 -- -- 86
2020-01-13 20:00:00 3.4 6 Sur 19 Sudeste 0 -- -- 83
2020-01-13 19:00:00 3.8 6 Sur 23 Sur 0 -- -- 82
2020-01-13 18:00:00 5.2 8 Sur 28 Sudoeste 0 -- -- 74
2020-01-13 17:00:00 7.5 6 Sudoeste 25 Sur 0 -- -- 62
2020-01-13 16:00:00 7.6 16 Sur 24 Sudoeste 0 -- -- 64
2020-01-13 15:00:00 7.6 5 Sudoeste 27 Sur 0 -- -- 60
2020-01-13 14:00:00 7.4 9 Sudoeste 25 Sur 0 -- -- 64
2020-01-13 13:00:00 6.7 12 Sudoeste 21 Sudoeste 0 -- -- 66
2020-01-13 12:00:00 6.1 3 Sudoeste 15 Sur 0 -- -- 71
2020-01-13 11:00:00 3.5 3 Nordeste 11 Sur 0 -- -- 88
2020-01-13 10:00:00 -1.3 0 Calma 5 Sudoeste 0 -- -- 100
2020-01-13 09:00:00 -3.3 0 Calma 4 Sudoeste 0 -- -- 98
2020-01-13 08:00:00 -3.6 0 Calma 3 Norte 0 -- -- 97
2020-01-13 07:00:00 -3.9 0 Calma 3 Sudoeste 0 -- -- 97
2020-01-13 06:00:00 -3.8 0 Calma 2 Sudeste 0 -- -- 96
2020-01-13 05:00:00 -4.4 0 Calma 3 Sur 0 -- -- 95
2020-01-13 04:00:00 -4.7 0 Calma 2 Sur 0 -- -- 94
2020-01-13 03:00:00 -4.8 0 Calma 3 Sur 0 -- -- 92
2020-01-13 02:00:00 -4.7 2 Sur 3 Sur 0 -- -- 90
2020-01-13 01:00:00 -4.4 2 Sur 3 Sudoeste 0 -- -- 90
2020-01-13 00:00:00 -4.2 2 Sudoeste 4 Sur 0 -- -- 92
2020-01-12 23:00:00 -3.7 2 Sur 4 Sur 0 -- -- 92
2020-01-12 22:00:00 -3.1 2 Sudoeste 4 Sur 0 -- -- 92
2020-01-12 21:00:00 -2.3 2 Sur 4 Sur 0 -- -- 88
2020-01-12 20:00:00 -1 2 Sur 5 Sur 0 -- -- 82
2020-01-12 19:00:00 2.1 3 Sur 5 Sudoeste 0 -- -- 72
2020-01-12 18:00:00 8 2 Norte 11 Norte 0 -- -- 54
2020-01-12 17:00:00 10.8 6 Norte 11 Norte 0 -- -- 40
2020-01-12 16:00:00 10.9 0 Calma 9 Noroeste 0 -- -- 42
2020-01-12 15:00:00 9.8 5 Norte 14 Norte 0 -- -- 44
2020-01-12 14:00:00 9.2 5 Norte 15 Norte 0 -- -- 39
2020-01-12 13:00:00 9.2 3 Nordeste 8 Norte 0 -- -- 52
2020-01-12 12:00:00 7.1 2 Nordeste 7 Este 0 -- -- 73
2020-01-12 11:00:00 1.6 0 Calma 3 Sur 0 -- -- 89
2020-01-12 10:00:00 -4.2 2 Sudeste 3 Sudeste 0 -- -- 100
2020-01-12 09:00:00 -6.4 2 Sur 3 Sur 0 -- -- 97
2020-01-12 08:00:00 -6.6 2 Sudoeste 3 Sur 0 -- -- 97
2020-01-12 07:00:00 -6.6 2 Sudoeste -- -- 0 -- -- 97
2020-01-12 06:00:00 -6 2 Sudoeste 3 Sudoeste 0 -- -- 98
2020-01-12 05:00:00 -6 2 Sudoeste -- -- 0 -- -- 96
2020-01-12 04:00:00 -5.2 2 Sudoeste 3 Sudoeste 0 -- -- 97
2020-01-12 03:00:00 -5 2 Sudoeste -- -- 0 -- -- 97
2020-01-12 02:00:00 -4.7 2 Sudoeste -- -- 0 -- -- 96
2020-01-12 01:00:00 -4.3 -- -- -- -- 0 -- -- 96
2020-01-12 00:00:00 -4 2 Sur 4 Sur 0 -- -- 95
2020-01-11 23:00:00 -3.7 2 Sudoeste 3 Sur 0 -- -- 94
2020-01-11 22:00:00 -2.9 2 Sur 4 Sur 0 -- -- 92
2020-01-11 21:00:00 -1.7 2 Sudoeste -- -- 0 -- -- 92
2020-01-11 20:00:00 -0.4 3 Sur 5 Sur 0 -- -- 87
2020-01-11 19:00:00 2.2 3 Sur 5 Sur 0 -- -- 78
2020-01-11 18:00:00 8 2 Sur 7 Sudoeste 0 -- -- 65
2020-01-11 17:00:00 11.1 2 Sudoeste 11 Norte 0 -- -- 53
2020-01-11 16:00:00 11.5 4 Norte 10 Sur 0 -- -- 49
2020-01-11 15:00:00 10.9 6 Sudoeste 12 Sudoeste 0 -- -- 53
2020-01-11 14:00:00 9.2 2 Oeste 8 Noroeste 0 -- -- 53
2020-01-11 13:00:00 7.8 3 Este 9 Norte 0 -- -- 63
2020-01-11 12:00:00 5.5 2 Nordeste 5 Norte 0 -- -- 79
2020-01-11 11:00:00 1 0 Calma 2 Sur 0 -- -- 93
2020-01-11 10:00:00 -4.4 0 Calma 2 Sur 0 -- -- 100
2020-01-11 09:00:00 -6 0 Calma 2 Sur 0 -- -- 98
2020-01-11 08:00:00 -5.9 0 Calma 3 Sur 0 -- -- 98
2020-01-11 07:00:00 -5.7 0 Calma 2 Sudoeste 0 -- -- 97
2020-01-11 06:00:00 -5.5 2 Sur 2 Sudoeste 0 -- -- 96
2020-01-11 05:00:00 -5.2 0 Calma 4 Sur 0 -- -- 96
2020-01-11 04:00:00 -4.7 0 Calma 4 Sur 0 -- -- 97
2020-01-11 03:00:00 -4.7 2 Sur 4 Sur 0 -- -- 96
2020-01-11 02:00:00 -4.2 0 Calma 3 Sudoeste 0 -- -- 95
2020-01-11 01:00:00 -3.8 2 Sur 4 Sudoeste 0 -- -- 94
2020-01-11 00:00:00 -2.7 0 Calma 4 Sur 0 -- -- 93
2020-01-10 23:00:00 -1.9 2 Sur 4 Sudoeste 0 -- -- 89
2020-01-10 22:00:00 0.4 3 Sur 8 Norte 0 -- -- 88
2020-01-10 21:00:00 2.4 2 Nordeste 12 Nordeste 0 -- -- 80
2020-01-10 20:00:00 3 0 Calma 7 Nordeste 0 -- -- 76
2020-01-10 19:00:00 4.4 3 Nordeste 13 Norte 0 -- -- 72
2020-01-10 18:00:00 6.2 6 Norte 23 Norte 0 -- -- 62
2020-01-10 17:00:00 8 5 Norte 24 Norte 0 -- -- 56
2020-01-10 16:00:00 8.3 7 Norte 24 Norte 0 -- -- 57
2020-01-10 15:00:00 7.5 12 Norte 32 Norte 0 -- -- 61
2020-01-10 14:00:00 6.8 6 Norte 25 Norte 0 -- -- 67
2020-01-10 13:00:00 5.7 6 Norte 24 Nordeste 0 -- -- 75
2020-01-10 12:00:00 3.4 6 Norte 15 Norte 0 -- -- 87
2020-01-10 11:00:00 1.3 3 Norte 14 Norte 0 -- -- 100
2020-01-10 10:00:00 1 5 Norte 19 Norte 0 -- -- 100
2020-01-10 09:00:00 0.7 5 Norte 16 Norte 0 -- -- 100
2020-01-10 08:00:00 -1.3 0 Calma 2 Nordeste 0 -- -- 100
2020-01-10 07:00:00 -2.5 0 Calma 0 Calma 0 -- -- 98
2020-01-10 06:00:00 -1.9 0 Calma 2 Sur 0 -- -- 97
2020-01-10 05:00:00 -0.7 0 Calma 3 Noroeste 0 -- -- 96
2020-01-10 04:00:00 0.7 2 Norte 10 Norte 0 -- -- 96
2020-01-10 03:00:00 1.7 3 Norte 13 Norte 0 -- -- 96
2020-01-10 02:00:00 2.7 5 Norte 23 Norte 0 -- -- 93
2020-01-10 01:00:00 3.8 8 Norte 17 Noroeste 0 -- -- 90
2020-01-10 00:00:00 4.4 6 Norte 14 Noroeste 0 -- -- 89
2020-01-09 23:00:00 5.2 6 Norte 17 Noroeste 0 -- -- 82
2020-01-09 22:00:00 6 4 Norte 12 Nordeste 0 -- -- 89
2020-01-09 21:00:00 6.9 2 Oeste 15 Noroeste 0 -- -- 89
2020-01-09 20:00:00 8.4 9 Noroeste 27 Noroeste 0 -- -- 87
2020-01-09 19:00:00 10.5 8 Noroeste 26 Oeste 0 -- -- 77
2020-01-09 18:00:00 10.6 6 Oeste 12 Sudoeste 0 -- -- 78
2020-01-09 17:00:00 11.6 5 Oeste 18 Sudoeste 0 -- -- 72
2020-01-09 16:00:00 13.4 9 Sudoeste 19 Oeste 0 -- -- 65
2020-01-09 15:00:00 13.7 9 Noroeste 29 Oeste 0 -- -- 68
2020-01-09 14:00:00 12.1 9 Noroeste 20 Noroeste 0 -- -- 76
2020-01-09 13:00:00 10.1 7 Noroeste 27 Noroeste 0 -- -- 88
2020-01-09 12:00:00 11.1 8 Noroeste 16 Noroeste 0 -- -- 81
2020-01-09 11:00:00 4.8 0 Calma 3 Sudeste 0 -- -- 96
2020-01-09 10:00:00 1.5 0 Calma 3 Sur 0 -- -- 97
2020-01-09 09:00:00 -0.4 0 Calma 3 Sur 0 -- -- 96
2020-01-09 08:00:00 -2.4 0 Calma 3 Sur 0 -- -- 95
2020-01-09 07:00:00 -2.8 2 Sur 3 Sudeste 0 -- -- 92
2020-01-09 06:00:00 -2.6 0 Calma 4 Sur 0 -- -- 91
2020-01-09 05:00:00 -2.8 2 Sudoeste 4 Sur 0 -- -- 92
2020-01-09 04:00:00 -2.8 2 Sur 4 Sur 0 -- -- 92
2020-01-09 03:00:00 -2.5 0 Calma 4 Sur 0 -- -- 94
2020-01-09 02:00:00 -2.4 3 Sudoeste 5 Sur 0 -- -- 96
2020-01-09 01:00:00 -2.5 0 Calma 4 Sur 0 -- -- 95
2020-01-09 00:00:00 -2.1 2 Sur 4 Sur 0 -- -- 94
2020-01-08 23:00:00 -1.7 2 Sur 3 Sur 0 -- -- 93
2020-01-08 22:00:00 -1.1 0 Calma 3 Sur 0 -- -- 92
2020-01-08 21:00:00 -0.5 0 Calma 3 Sur 0 -- -- 89
2020-01-08 20:00:00 0.5 2 Sudoeste 4 Sur 0 -- -- 84
2020-01-08 19:00:00 2.9 2 Sur 3 Sur 0 -- -- 77
2020-01-08 18:00:00 7.6 0 Calma 8 Norte 0 -- -- 63
2020-01-08 17:00:00 10.2 3 Norte 13 Norte 0 -- -- 48
2020-01-08 16:00:00 13.2 6 Norte 11 Norte 0 -- -- 29
2020-01-08 15:00:00 14.1 5 Norte 10 Norte 0 -- -- 25
2020-01-08 14:00:00 13.4 3 Nordeste 9 Norte 0 -- -- 25
2020-01-08 13:00:00 11.6 3 Sudeste 8 Sudeste 0 -- -- 26
2020-01-08 12:00:00 7.9 0 Calma 2 Sur 0 -- -- 55
2020-01-08 11:00:00 1.8 2 Sur 4 Sudoeste 0 -- -- 77
2020-01-08 10:00:00 -4.6 2 Sur 3 Sur 0 -- -- 92
2020-01-08 09:00:00 -6 0 Calma 0 Calma 0 -- -- 91
2020-01-08 08:00:00 -5.6 0 Calma 0 Calma 0 -- -- 90
2020-01-08 07:00:00 -5.2 0 Calma 3 Sur 0 -- -- 89
2020-01-08 06:00:00 -5.2 2 Sur 4 Sudoeste 0 -- -- 90
2020-01-08 05:00:00 -5.2 3 Sudoeste 4 Sudoeste 0 -- -- 91
2020-01-08 04:00:00 -5.1 3 Sudoeste 4 Sur 0 -- -- 91
2020-01-08 03:00:00 -5 2 Sur 3 Sur 0 -- -- 92
2020-01-08 02:00:00 -5 2 Sur 3 Sur 0 -- -- 92
2020-01-08 01:00:00 -4.8 2 Sudoeste 3 Sur 0 -- -- 91
2020-01-08 00:00:00 -4.4 0 Calma 2 Sur 0 -- -- 90
2020-01-07 23:00:00 -3.7 0 Calma 2 Sudoeste 0 -- -- 90
2020-01-07 22:00:00 -2.9 2 Sur 3 Sur 0 -- -- 87
2020-01-07 21:00:00 -2 2 Sur 3 Sur 0 -- -- 86
2020-01-07 20:00:00 -0.5 2 Sur 4 Sur 0 -- -- 83
2020-01-07 19:00:00 2.5 2 Sur 3 Sur 0 -- -- 76
2020-01-07 18:00:00 8.4 0 Calma 4 Norte 0 -- -- 62
2020-01-07 17:00:00 11.3 3 Nordeste 13 Norte 0 -- -- 49
2020-01-07 16:00:00 13.4 6 Norte 11 Norte 0 -- -- 33
2020-01-07 15:00:00 14.2 5 Norte 11 Norte 0 -- -- 38
2020-01-07 14:00:00 12.3 4 Norte 8 Norte 0 -- -- 37
2020-01-07 13:00:00 7.6 0 Calma 4 Norte 0 -- -- 66
2020-01-07 12:00:00 2.8 4 Norte 8 Norte 0 -- -- 79
2020-01-07 11:00:00 -0.1 3 Nordeste 6 Nordeste 0 -- -- 87
2020-01-07 10:00:00 -3.9 0 Calma 2 Nordeste 0 -- -- 99
2020-01-07 09:00:00 -4.7 0 Calma 2 Norte 0 -- -- 97
2020-01-07 08:00:00 -4.5 0 Calma 3 Sur 0 -- -- 97
2020-01-07 07:00:00 -4.7 0 Calma 2 Sur 0 -- -- 97
2020-01-07 06:00:00 -4.6 0 Calma 2 Sur 0 -- -- 96
2020-01-07 05:00:00 -4.4 0 Calma 2 Sur 0 -- -- 96
2020-01-07 04:00:00 -3.9 0 Calma 2 Sur 0 -- -- 96
2020-01-07 03:00:00 -4 2 Sur 4 Sur 0 -- -- 95
2020-01-07 02:00:00 -3.8 -- -- -- -- 0 -- -- 94
2020-01-07 01:00:00 -3.4 2 Sur 4 Sur 0 -- -- 93
2020-01-07 00:00:00 -3.3 2 Sur 5 Sur 0 -- -- 94
2020-01-06 23:00:00 -2.8 2 Sur 4 Sur 0 -- -- 92
2020-01-06 22:00:00 -2.1 2 Sudoeste 4 Sur 0 -- -- 91
2020-01-06 21:00:00 -1.1 3 Sur 5 Sur 0 -- -- 91
2020-01-06 20:00:00 0.6 2 Sur 5 Sur 0 -- -- 90
2020-01-06 19:00:00 3.4 2 Sur 3 Sur 0 -- -- 81
2020-01-06 18:00:00 8.3 0 Calma 10 Norte 0 -- -- 72
2020-01-06 17:00:00 11.3 3 Norte 10 Norte 0 -- -- 58
2020-01-06 16:00:00 12.8 5 Norte 14 Norte 0 -- -- 52
2020-01-06 15:00:00 13.5 4 Norte 13 Noroeste 0 -- -- 50
2020-01-06 14:00:00 13.5 4 Norte 8 Norte 0 -- -- 37
2020-01-06 13:00:00 10.7 3 Norte 5 Noroeste 0 -- -- 55
2020-01-06 12:00:00 7.4 0 Calma 2 Sudeste 0 -- -- 76
2020-01-06 11:00:00 1.6 0 Calma 3 Sur 0 -- -- 93
2020-01-06 10:00:00 -3.5 0 Calma 3 Sur 0 -- -- 100